| time (UTC) | temp C | wind direction | speed KPH | gust KPH | rain 1hr cm | rain 24hr cm | rain mn cm | humidity % | barometer mb |
| 20260506221547 | 20 | 279 | 0.0 | 19.3 | 0.00 | 0.03 | 0.03 | 50 | 1017.1 |
| 20260506220046 | 20 | 297 | 0.0 | 8.0 | 0.00 | 0.03 | 0.03 | 49 | 1017.2 |
| 20260506214545 | 20 | 248 | 0.0 | 11.3 | 0.00 | 0.03 | 0.03 | 49 | 1017.4 |
| 20260506213055 | 20 | 302 | 1.6 | 20.9 | 0.00 | 0.03 | 0.03 | 48 | 1017.4 |
| 20260506211544 | 21 | 309 | 0.0 | 3.2 | 0.00 | 0.03 | 0.03 | 48 | 1017.8 |
| 20260506210042 | 20 | 292 | 0.0 | 16.1 | 0.00 | 0.03 | 0.03 | 51 | 1017.9 |
| 20260506204547 | 20 | 273 | 0.0 | 8.0 | 0.00 | 0.03 | 0.03 | 50 | 1017.9 |
| 20260506203040 | 20 | 323 | 0.0 | 12.9 | 0.00 | 0.03 | 0.03 | 50 | 1018.1 |
| 20260506201538 | 20 | 326 | 0.0 | 8.0 | 0.00 | 0.03 | 0.03 | 50 | 1018.1 |
| 20260506200035 | 19 | 315 | 0.0 | 3.2 | 0.00 | 0.03 | 0.03 | 52 | 1018.4 |
| 20260506194537 | 19 | 284 | 0.0 | 11.3 | 0.00 | 0.03 | 0.03 | 53 | 1018.6 |
| 20260506193034 | 19 | 250 | 0.0 | 1.6 | 0.00 | 0.03 | 0.03 | 53 | 1018.7 |
| 20260506191532 | 19 | 328 | 0.0 | 14.5 | 0.00 | 0.03 | 0.03 | 52 | 1018.8 |
| 20260506190031 | 19 | 327 | 0.0 | 14.5 | 0.00 | 0.03 | 0.03 | 55 | 1018.9 |
| 20260506184529 | 18 | 313 | 0.0 | 14.5 | 0.00 | 0.03 | 0.03 | 53 | 1018.9 |
| 20260506183026 | 18 | 284 | 0.0 | 9.7 | 0.00 | 0.03 | 0.03 | 55 | 1018.9 |
| 20260506181521 | 17 | 306 | 0.0 | 16.1 | 0.00 | 0.03 | 0.03 | 59 | 1019.1 |
| 20260506180017 | 16 | 279 | 0.0 | 0.0 | 0.00 | 0.03 | 0.03 | 61 | 1019.2 |
| 20260506174515 | 16 | 321 | 0.0 | 16.1 | 0.00 | 0.08 | 0.03 | 63 | 1019.1 |
| 20260506173013 | 16 | 332 | 0.0 | 17.7 | 0.00 | 0.08 | 0.03 | 64 | 1019.3 |
| 20260506171511 | 15 | 303 | 0.0 | 14.5 | 0.00 | 0.08 | 0.03 | 66 | 1019.2 |
| 20260506170005 | 15 | 313 | 0.0 | 9.7 | 0.00 | 0.08 | 0.03 | 68 | 1019.1 |
| 20260506164500 | 13 | 300 | 0.0 | 0.0 | 0.00 | 0.10 | 0.03 | 72 | 1018.9 |
| 20260506163116 | 12 | 304 | 0.0 | 0.0 | 0.00 | 0.10 | 0.03 | 80 | 1019.0 |
| 20260506161552 | 10 | 306 | 0.0 | 0.0 | 0.00 | 0.10 | 0.03 | 89 | 1019.0 |
| 20260506160048 | 9 | 307 | 0.0 | 0.0 | 0.00 | 0.10 | 0.03 | 96 | 1019.0 |
| 20260506154605 | 8 | 308 | 0.0 | 0.0 | 0.00 | 0.20 | 0.03 | 96 | 1019.1 |
| 20260506153049 | 6 | 308 | 0.0 | 0.0 | 0.00 | 0.20 | 0.03 | 96 | 1019.2 |
| 20260506151535 | 5 | 308 | 0.0 | 0.0 | 0.00 | 0.20 | 0.03 | 95 | 1019.1 |
| 20260506150033 | 4 | 308 | 0.0 | 0.0 | 0.00 | 0.20 | 0.03 | 95 | 1019.0 |
| 20260506144531 | 4 | 308 | 0.0 | 0.0 | 0.00 | 0.25 | 0.03 | 94 | 1019.0 |
| 20260506143040 | 3 | 308 | 0.0 | 0.0 | 0.00 | 0.25 | 0.03 | 94 | 1018.9 |
| 20260506141532 | 3 | 308 | 0.0 | 0.0 | 0.00 | 0.25 | 0.03 | 93 | 1018.8 |
| 20260506140028 | 2 | 308 | 0.0 | 0.0 | 0.00 | 0.25 | 0.03 | 93 | 1019.0 |
| 20260506134526 | 2 | 308 | 0.0 | 0.0 | 0.00 | 0.41 | 0.03 | 92 | 1018.7 |
| 20260506133026 | 2 | 308 | 0.0 | 0.0 | 0.00 | 0.41 | 0.03 | 92 | 1018.6 |
| 20260506131524 | 2 | 308 | 0.0 | 0.0 | 0.00 | 0.41 | 0.03 | 92 | 1018.4 |
| 20260506130022 | 2 | 308 | 0.0 | 0.0 | 0.03 | 0.41 | 0.03 | 92 | 1018.0 |
| 20260506124520 | 2 | 308 | 0.0 | 0.0 | 0.03 | 0.58 | 0.03 | 92 | 1017.8 |
| 20260506123020 | 2 | 308 | 0.0 | 0.0 | 0.03 | 0.58 | 0.03 | 92 | 1017.8 |
| 20260506121519 | 2 | 308 | 0.0 | 0.0 | 0.03 | 0.58 | 0.03 | 92 | 1017.8 |
| 20260506120017 | 2 | 308 | 0.0 | 0.0 | 0.00 | 0.56 | 0.00 | 92 | 1017.7 |
| 20260506114517 | 2 | 308 | 0.0 | 0.0 | 0.00 | 0.66 | 0.00 | 92 | 1017.8 |
| 20260506113016 | 3 | 308 | 0.0 | 0.0 | 0.00 | 0.66 | 0.00 | 92 | 1017.8 |
| 20260506111514 | 2 | 308 | 0.0 | 0.0 | 0.00 | 0.66 | 0.00 | 92 | 1017.6 |
| 20260506110014 | 2 | 308 | 0.0 | 0.0 | 0.00 | 0.66 | 0.00 | 92 | 1017.5 |
| 20260506104512 | 2 | 308 | 0.0 | 0.0 | 0.00 | 0.76 | 0.00 | 91 | 1017.6 |
| 20260506103011 | 2 | 308 | 0.0 | 0.0 | 0.00 | 0.76 | 0.00 | 91 | 1017.5 |
| 20260506101510 | 2 | 308 | 0.0 | 0.0 | 0.00 | 0.76 | 0.00 | 90 | 1017.3 |
| 20260506100008 | 2 | 308 | 0.0 | 0.0 | 0.00 | 0.76 | 0.00 | 90 | 1017.3 |
| 20260506094506 | 2 | 308 | 0.0 | 0.0 | 0.00 | 0.91 | 0.00 | 90 | 1017.3 |
| 20260506093005 | 3 | 308 | 0.0 | 0.0 | 0.00 | 0.91 | 0.00 | 90 | 1017.3 |
| 20260506091501 | 3 | 308 | 0.0 | 0.0 | 0.00 | 0.91 | 0.00 | 90 | 1017.3 |
| 20260506090058 | 3 | 308 | 0.0 | 0.0 | 0.00 | 0.91 | 0.00 | 90 | 1017.5 |
| 20260506084557 | 3 | 308 | 0.0 | 0.0 | 0.00 | 0.94 | 0.00 | 90 | 1017.7 |
| 20260506083103 | 3 | 308 | 0.0 | 0.0 | 0.00 | 0.94 | 0.00 | 91 | 1017.9 |
| 20260506081553 | 3 | 308 | 0.0 | 0.0 | 0.00 | 0.94 | 0.00 | 90 | 1018.1 |
| 20260506073049 | 4 | 308 | 0.0 | 0.0 | 0.00 | 0.94 | 0.00 | 89 | 1018.3 |
| 20260506071546 | 4 | 308 | 0.0 | 0.0 | 0.00 | 0.94 | 0.00 | 89 | 1018.4 |
| 20260506061538 | 5 | 308 | 0.0 | 0.0 | 0.00 | 0.94 | 0.94 | 89 | 1018.1 |
| 20260506044542 | 6 | 306 | 0.0 | 8.0 | 0.00 | 0.97 | 0.94 | 89 | 1017.7 |
| 20260506043031 | 6 | 303 | 0.0 | 8.0 | 0.00 | 0.97 | 0.94 | 89 | 1017.5 |
| 20260506041529 | 6 | 302 | 0.0 | 3.2 | 0.00 | 0.97 | 0.94 | 89 | 1017.2 |
| 20260506040049 | 6 | 302 | 0.0 | 0.0 | 0.00 | 0.97 | 0.94 | 88 | 1017.0 |
| 20260506034527 | 6 | 302 | 0.0 | 0.0 | 0.00 | 0.97 | 0.94 | 88 | 1017.0 |
| 20260506033026 | 6 | 304 | 0.0 | 0.0 | 0.00 | 0.97 | 0.94 | 87 | 1016.7 |
| 20260506031539 | 7 | 306 | 0.0 | 0.0 | 0.00 | 0.97 | 0.94 | 86 | 1016.4 |
| 20260506030022 | 7 | 307 | 0.0 | 0.0 | 0.00 | 0.97 | 0.94 | 85 | 1016.2 |
| 20260506024522 | 7 | 304 | 0.0 | 6.4 | 0.00 | 0.97 | 0.94 | 85 | 1016.1 |
| 20260506023021 | 7 | 302 | 0.0 | 0.0 | 0.00 | 0.97 | 0.94 | 84 | 1015.8 |
| 20260506021519 | 7 | 315 | 0.0 | 0.0 | 0.00 | 0.97 | 0.94 | 83 | 1015.7 |
| 20260506020019 | 7 | 309 | 0.0 | 0.0 | 0.00 | 0.97 | 0.94 | 82 | 1015.6 |
| 20260506014518 | 7 | 312 | 0.0 | 0.0 | 0.00 | 0.97 | 0.94 | 81 | 1015.6 |
| 20260506013017 | 7 | 306 | 0.0 | 16.1 | 0.00 | 0.97 | 0.94 | 80 | 1015.2 |
| 20260506011516 | 8 | 305 | 0.0 | 9.7 | 0.00 | 0.97 | 0.94 | 80 | 1015.2 |
| 20260506010016 | 8 | 316 | 0.0 | 6.4 | 0.00 | 0.97 | 0.94 | 80 | 1014.9 |
| 20260506004523 | 8 | 346 | 0.0 | 12.9 | 0.00 | 0.97 | 0.94 | 77 | 1014.8 |
| 20260506003015 | 8 | 259 | 0.0 | 6.4 | 0.00 | 0.97 | 0.94 | 79 | 1014.8 |
| 20260506001514 | 8 | 311 | 0.0 | 6.4 | 0.00 | 0.97 | 0.94 | 78 | 1014.6 |
| 20260506000011 | 8 | 306 | 0.0 | 17.7 | 0.00 | 0.97 | 0.94 | 75 | 1014.6 |
| 20260505234510 | 9 | 252 | 0.0 | 16.1 | 0.00 | 0.97 | 0.94 | 75 | 1014.6 |
| 20260505233008 | 9 | 281 | 0.0 | 16.1 | 0.00 | 0.97 | 0.94 | 79 | 1014.4 |
| 20260505231506 | 9 | 285 | 0.0 | 12.9 | 0.00 | 0.97 | 0.94 | 82 | 1014.6 |
| 20260505230004 | 8 | 253 | 0.0 | 11.3 | 0.00 | 0.97 | 0.94 | 84 | 1014.7 |
| 20260505224503 | 8 | 322 | 0.0 | 3.2 | 0.00 | 0.97 | 0.94 | 84 | 1014.8 |
| 20260505223002 | 9 | 254 | 0.0 | 17.7 | 0.00 | 0.97 | 0.94 | 87 | 1014.8 |